Powrót do katalogu

COSMOS 991

AktywnyNawigacjaPO
NORAD 10692·PAYLOAD·🇷🇺 Russia

Wystrzelony Feb 28, 1978 z Plesetsk Cosmodrome

Loading…

Następne Przeloty (najbliższe 24 godziny)

TLE

ŚwieżeSource: Space-Track

Epoka: Sep 14, 2026, 05:28 UTC

1 10692U 78022A   26257.22834256  .00000062  00000-0  47239-4 0  9998
2 10692  82.9917 180.9652 0037522  40.8821 122.2322 13.76577589437623

Śledź COSMOS 991 w czasie rzeczywistym z AllMySat

Download on the App Store